Stafford, VA

4:50 PM EST on December 16, 2017 (GMT -0500)
Stafford

Weather History for KRMN - October, 2012

Change the Weather History Date:

Wednesday, October 17, 2012

  Actual Average (KNYG) Record (KNYG)
Temperature  
Mean Temperature 54 °F -  
Max Temperature 70 °F 64 °F 79 °F (2016)
Min Temperature 37 °F 45 °F 39 °F (2001)
Degree Days  
Heating Degree Days 12    
Growing Degree Days 4 (Base 50)    
Moisture  
Dew Point 46 °F    
Average Humidity 50    
Maximum Humidity 82    
Minimum Humidity 37    
Precipitation  
Precipitation 0.00 in - - ()
Sea Level Pressure  
Sea Level Pressure 30.00 in    
Wind  
Wind Speed 2 mph (South)    
Max Wind Speed 9 mph    
Max Gust Speed 16 mph    
Visibility 8 miles    
Events      
Averages and records for this station are not official NWS values.
T = Trace of Precipitation, MM = Missing Value Source: NWS Daily Summary

Daily Weather History Graph

Daily Weather History Graph

Search for Another Location

Airport or City:

Trip Planner

Search our weather history database for the weather conditions in past years. The results will help you decide how hot, cold, wet, or windy it might be!

Date:

Astronomy

Oct. 17, 2012 Rise Set
Actual Time 7:21 AM EDT 6:28 PM EDT
Civil Twilight 6:54 AM EDT 6:55 PM EDT
Nautical Twilight 6:23 AM EDT 7:25 PM EDT
Astronomical Twilight 5:53 AM EDT 7:56 PM EDT
Moon 9:50 AM EDT (10/17) 8:04 PM EDT (10/17)
Length of Visible Light 12h 00m
Length of Day
11h 07m
Waxing Crescent, 7% of the Moon is Illuminated
Oct 17
Waxing Crescent
Oct 21
First Quarter
Oct 29
Full
Nov 6
Last Quarter
Nov 13
New

Hourly Weather History & Observations

Time (EDT) Temp. Windchill Dew Point Humidity Pressure Visibility Wind Dir Wind Speed Gust Speed Precip Events Conditions
12:15 AM 41.7 °F - - N/A% 29.98 in 7.0 mi Calm Calm - N/A   Clear
12:35 AM 41.0 °F - - N/A% 29.98 in 5.0 mi Calm Calm - N/A   Haze
12:55 AM 40.5 °F 37.3 °F - N/A% 29.99 in 7.0 mi NW 4.6 mph - N/A   Clear
1:15 AM 40.3 °F - - N/A% 29.99 in 7.0 mi Calm Calm - N/A   Clear
1:35 AM 39.7 °F 37.6 °F - N/A% 30.00 in 7.0 mi WNW 3.5 mph - N/A   Clear
1:55 AM 39.7 °F 36.5 °F - N/A% 30.00 in 7.0 mi NW 4.6 mph - N/A   Clear
2:15 AM 40.3 °F 38.2 °F - N/A% 30.00 in 7.0 mi NW 3.5 mph - N/A   Clear
2:35 AM 41.0 °F - - N/A% 29.99 in 7.0 mi Calm Calm - N/A   Clear
2:55 AM 39.6 °F - - N/A% 29.99 in 7.0 mi Calm Calm - N/A   Clear
3:15 AM 39.7 °F - - N/A% 29.99 in 5.0 mi Calm Calm - N/A   Haze
3:35 AM 40.6 °F - - N/A% 30.00 in 5.0 mi Calm Calm - N/A   Haze
3:55 AM 39.9 °F 37.8 °F - N/A% 30.00 in 7.0 mi NW 3.5 mph - N/A   Clear
4:15 AM 40.6 °F - - N/A% 30.00 in 7.0 mi Calm Calm - N/A   Clear
4:35 AM 40.3 °F - - N/A% 30.00 in 5.0 mi Calm Calm - N/A   Haze
4:55 AM 39.7 °F - - N/A% 30.01 in 5.0 mi Calm Calm - N/A   Haze
5:15 AM 39.4 °F - - N/A% 30.01 in 5.0 mi Calm Calm - N/A   Haze
5:35 AM 39.2 °F - - N/A% 30.01 in 4.0 mi Calm Calm - N/A   Haze
5:55 AM 39.9 °F - - N/A% 30.02 in 5.0 mi Calm Calm - N/A   Haze
6:15 AM 39.2 °F - - N/A% 30.02 in 5.0 mi Calm Calm - N/A   Haze
6:35 AM 38.5 °F - - N/A% 30.03 in 7.0 mi Calm Calm - N/A   Clear
6:55 AM 40.1 °F - - N/A% 30.02 in 10.0 mi Calm Calm - N/A   Clear
7:15 AM 37.6 °F 35.1 °F - N/A% 30.03 in 5.0 mi NW 3.5 mph - N/A   Haze
7:55 AM 37.9 °F 35.5 °F - N/A% 30.04 in 5.0 mi WNW 3.5 mph - N/A   Haze
8:15 AM 40.1 °F 38.0 °F - N/A% 30.04 in 4.0 mi NW 3.5 mph - N/A   Haze
8:35 AM 41.5 °F - - N/A% 30.05 in 5.0 mi Calm Calm - N/A   Haze
8:55 AM 43.5 °F - - N/A% 30.05 in 7.0 mi Calm Calm - N/A   Clear
9:15 AM 45.3 °F - - N/A% 30.05 in 7.0 mi Calm Calm - N/A   Clear
9:35 AM 47.1 °F - - N/A% 30.06 in 10.0 mi Calm Calm - N/A   Clear
9:55 AM 49.1 °F - - N/A% 30.07 in 10.0 mi Calm Calm - N/A   Clear
10:15 AM 50.9 °F - - N/A% 30.07 in 10.0 mi Calm Calm - N/A   Clear
10:35 AM 53.8 °F - - N/A% 30.06 in 10.0 mi Calm Calm - N/A   Clear
10:55 AM 56.1 °F - 47.5 °F 73% 30.06 in 10.0 mi SE 3.5 mph - N/A   Clear
11:15 AM 57.9 °F - 46.0 °F 65% 30.05 in 10.0 mi SSE 3.5 mph - N/A   Clear
11:35 AM 59.7 °F - 46.2 °F 61% 30.05 in 10.0 mi SSE 4.6 mph - N/A   Clear
11:55 AM 61.7 °F - 46.9 °F 58% 30.04 in 10.0 mi SSE 4.6 mph - N/A   Clear
12:15 PM 63.1 °F - 47.3 °F 56% 30.03 in 10.0 mi SE 4.6 mph - N/A   Clear
12:35 PM 64.8 °F - 47.3 °F 53% 30.02 in 10.0 mi SSE 6.9 mph - N/A   Clear
12:55 PM 66.4 °F - 46.8 °F 49% 30.01 in 10.0 mi SSE 5.8 mph - N/A   Clear
1:15 PM 66.9 °F - 46.4 °F 48% 30.00 in 10.0 mi South 5.8 mph 16.1 mph N/A   Clear
1:35 PM 67.6 °F - 46.9 °F 47% 29.99 in 10.0 mi SE 9.2 mph - N/A   Clear
1:55 PM 68.2 °F - 44.6 °F 43% 29.98 in 10.0 mi Calm Calm - N/A   Clear
2:15 PM 69.4 °F - 45.7 °F 42% 29.97 in 10.0 mi SSW 9.2 mph - N/A   Clear
2:35 PM 69.3 °F - 46.4 °F 44% 29.97 in 10.0 mi SE 6.9 mph - N/A   Clear
2:55 PM 70.2 °F - 45.7 °F 41% 29.97 in 10.0 mi South 8.1 mph - N/A   Clear
3:15 PM 70.3 °F - 44.6 °F 40% 29.97 in 10.0 mi South 6.9 mph - N/A   Clear
3:35 PM 70.3 °F - 44.6 °F 40% 29.97 in 10.0 mi South 8.1 mph - N/A   Clear
3:55 PM 70.5 °F - 43.3 °F 37% 29.95 in 10.0 mi South 3.5 mph - N/A   Clear
4:15 PM 70.7 °F - 43.7 °F 38% 29.96 in 10.0 mi South 3.5 mph - N/A   Clear
4:35 PM 70.2 °F - 43.7 °F 38% 29.95 in 10.0 mi SSE 5.8 mph - N/A   Clear
4:55 PM 70.2 °F - 43.0 °F 37% 29.95 in 10.0 mi South 5.8 mph - N/A   Clear
5:15 PM 70.0 °F - 44.4 °F 40% 29.95 in 10.0 mi SSW 5.8 mph - N/A   Clear
5:35 PM 68.5 °F - 44.8 °F 42% 29.95 in 10.0 mi Calm Calm - N/A   Clear
5:55 PM 67.5 °F - 45.5 °F 45% 29.95 in 10.0 mi SSE 4.6 mph - N/A   Clear
6:15 PM 66.4 °F - 45.7 °F 47% 29.95 in 10.0 mi SE 4.6 mph - N/A   Clear
6:35 PM 61.5 °F - 48.0 °F 61% 29.96 in 10.0 mi Calm Calm - N/A   Clear
6:55 PM 56.8 °F - 51.3 °F 82% 29.96 in 10.0 mi Calm Calm - N/A   Clear
7:15 PM 59.4 °F - 48.9 °F 68% 29.97 in 10.0 mi Calm Calm - N/A   Clear
7:35 PM 53.6 °F - - N/A% 29.97 in 10.0 mi Calm Calm - N/A   Clear
7:55 PM 52.9 °F - - N/A% 29.98 in 10.0 mi Calm Calm - N/A   Clear
8:15 PM 52.7 °F - - N/A% 29.98 in 10.0 mi Calm Calm - N/A   Clear
8:35 PM 50.9 °F - - N/A% 29.99 in 10.0 mi Calm Calm - N/A   Clear
8:55 PM 50.9 °F - - N/A% 29.99 in 10.0 mi Calm Calm - N/A   Clear
9:15 PM 50.0 °F - - N/A% 29.99 in 7.0 mi Calm Calm - N/A   Clear
9:35 PM 49.5 °F - - N/A% 29.98 in 10.0 mi Calm Calm - N/A   Clear
9:55 PM 49.1 °F - - N/A% 29.99 in 7.0 mi Calm Calm - N/A   Clear
10:15 PM 49.5 °F - - N/A% 29.99 in 7.0 mi Calm Calm - N/A   Clear
10:35 PM 47.8 °F - - N/A% 29.99 in 7.0 mi Calm Calm - N/A   Clear
10:55 PM 48.4 °F - - N/A% 29.99 in 7.0 mi Calm Calm - N/A   Clear
11:15 PM 48.4 °F - - N/A% 29.98 in 10.0 mi Calm Calm - N/A   Clear
11:55 PM 46.0 °F - - N/A% 29.98 in 7.0 mi Calm Calm - N/A   Clear